Regional Weather Roundup
Issued by NWS Little Rock, AR

Home | Current Version | Previous Version | Graphics & Text | Print | Product List | Glossary On
Versions: 1 2 3 4 5 6 7 8 9 10 11 12 13 14 15 16 17 18 19 20 21 22 23 24 25 26 27 28 29
000
ASUS44 KLZK 291205
RWRLZK

WEATHER ROUNDUP FOR ARKANSAS
NATIONAL WEATHER SERVICE LITTLE ROCK AR
700 AM CDT WED OCT 29 2014

NOTE: "FAIR" INDICATES FEW OR NO CLOUDS BELOW 12,000 FEET WITH NO
SIGNIFICANT WEATHER AND/OR OBSTRUCTIONS TO VISIBILITY.

ARZ001-003-010-029-291300-
NORTHWEST ARKANSAS

CITY           SKY/WX    TMP DP  RH WIND       PRES   REMARKS
FAYETTEVILLE     N/A     38  37  97 CALM      30.22R
6HR MIN TEMP:  37; 6HR MAX TEMP:  42;

FORT SMITH     CLEAR     46  43  89 CALM      30.20R
6HR MIN TEMP:  46; 6HR MAX TEMP:  54;

HARRISON       CLEAR     42  39  89 CALM      30.19R
6HR MIN TEMP:  42; 6HR MAX TEMP:  48;

BENTONVILLE    CLEAR     39  37  93 CALM      30.21R
6HR MIN TEMP:  39; 6HR MAX TEMP:  45;

ROGERS         CLEAR     41  40  96 CALM      30.21S
6HR MIN TEMP:  39; 6HR MAX TEMP:  46; 6HR PCP: TRACE;

SILOAM SPGS    CLEAR     39  34  81 CALM      30.22S
6HR MIN TEMP:  37; 6HR MAX TEMP:  45;

HIGHFILL       CLEAR     39  37  92 CALM      30.20S
6HR MIN TEMP:  37; 6HR MAX TEMP:  47;

$$

ARZ004-005-016-291300-
NORTH CENTRAL ARKANSAS

CITY           SKY/WX    TMP DP  RH WIND       PRES   REMARKS
BATESVILLE     CLEAR     46  45  93 NW3       30.18S
6HR MIN TEMP:  46; 6HR MAX TEMP:  54;

FLIPPIN        CLEAR     39  34  81 CALM      30.19R
6HR MIN TEMP:  39; 6HR MAX TEMP:  48;

MTN HOME       CLEAR     44  44 100 NW3       30.18R
6HR MIN TEMP:  41; 6HR MAX TEMP:  48;

$$

ARZ040-041-291300-
WEST CENTRAL ARKANSAS

CITY           SKY/WX    TMP DP  RH WIND       PRES   REMARKS
MENA           CLEAR     45  45 100 CALM      30.20R
MOUNT IDA      FOG       45  44  97 CALM      30.17R VSB 3/4
6HR MIN TEMP:  46; 6HR MAX TEMP:  55;

$$

ARZ009-017-025-026-028-291300-
NORTHEAST ARKANSAS

CITY           SKY/WX    TMP DP  RH WIND       PRES   REMARKS
CORNING        FAIR      45  45 100 W3        30.17S
JONESBORO      CLEAR     46  45  96 CALM      30.17R
6HR MIN TEMP:  45; 6HR MAX TEMP:  54; 6HR PCP:  0.01;

NEWPORT        CLEAR     48  48 100 W3        30.19R
6HR MIN TEMP:  47; 6HR MAX TEMP:  53;

WALNUT RIDGE   CLEAR     46  43  87 NW3       30.17S
6HR MIN TEMP:  46; 6HR MAX TEMP:  54;

BLYTHEVILLE    FOG       49  49 100 CALM      30.17S VSB 1/4
6HR MIN TEMP:  48; 6HR MAX TEMP:  55;

$$

ARZ022-023-033-042-044-291300-
CENTRAL ARKANSAS

CITY           SKY/WX    TMP DP  RH WIND       PRES   REMARKS
LITTLE ROCK    PTCLDY    50  47  89 N6        30.19R
6HR MIN TEMP:  50; 6HR MAX TEMP:  56;

N LITTLE ROCK    N/A     51  50  95 NW7       30.19R
6HR MIN TEMP:  51; 6HR MAX TEMP:  55;

JACKSONVILLE   CLEAR     44  44  98 SW2       30.18R
6HR MIN TEMP:  44; 6HR MAX TEMP:  54; 6HR PCP:  0.01;

SEARCY         FOG       45  45 100 CALM      30.20R VSB 3/4
6HR MIN TEMP:  44; 6HR MAX TEMP:  53; 6HR PCP:  0.01;

HOT SPRINGS    CLEAR     47  45  93 CALM      30.18R
6HR MIN TEMP:  47; 6HR MAX TEMP:  56;

RUSSELLVILLE   CLEAR     44  42  93 CALM      30.19R FOG
6HR MIN TEMP:  44; 6HR MAX TEMP:  53;

$$

ARZ036-291300-
EAST ARKANSAS

CITY           SKY/WX    TMP DP  RH WIND       PRES   REMARKS
WEST MEMPHIS   CLEAR     49  49 100 N3        30.16R
6HR MIN TEMP:  48; 6HR MAX TEMP:  54; 6HR PCP: TRACE;

$$

ARZ050-053-066-070-073-291300-
SOUTHWEST ARKANSAS

CITY           SKY/WX    TMP DP  RH WIND       PRES   REMARKS
ARKADELPHIA    FAIR      50  50 100 CALM      30.18S FOG
6HR MIN TEMP:  49; 6HR MAX TEMP:  59;

CAMDEN         CLOUDY    55  54  94 N3        30.17R
TEXARKANA      PTCLDY    53  52  96 CALM      30.17R
6HR MIN TEMP:  53; 6HR MAX TEMP:  61;

EL DORADO      CLOUDY    56  54  93 N7        30.15R
6HR MIN TEMP:  55; 6HR MAX TEMP:  60;

DE QUEEN       FOG       47  46  97 CALM      30.17R VSB 1/2
6HR MIN TEMP:  46; 6HR MAX TEMP:  56;

$$

ARZ056-057-069-291300-
SOUTHEAST ARKANSAS

CITY           SKY/WX    TMP DP  RH WIND       PRES   REMARKS
PINE BLUFF     CLEAR     52  50  93 N3        30.17R
6HR MIN TEMP:  51; 6HR MAX TEMP:  57;

STUTTGART      CLOUDY    52  48  87 N7        30.18R VSB 1
6HR MIN TEMP:  52; 6HR MAX TEMP:  55;

MONTICELLO     CLOUDY    55  52  89 NE6       30.15R
6HR MIN TEMP:  55; 6HR MAX TEMP:  58; 6HR PCP: TRACE;


$$





USA.gov is the U.S. government's official web portal to all federal, state and local government web resources and services.